GEFSGL_500_meanwind_114.txt.gz
Wind_Speed
24 24 25 26 27 27 28 28 29 29 30 30 31 32 33 33 34 36 37 39 41 42 44 45 46 46 47 46 46 47 46 45 45 44 44 45 45 46 45 45 45 45 45
25 25 26 27 27 27 28 28 29 29 30 31 31 32 32 33 34 35 36 37 39 41 43 44 45 46 46 47 47 47 47 46 45 45 45 46 46 46 47 46 46 46 45
26 26 27 27 27 28 28 29 29 30 31 31 31 31 32 32 32 33 34 36 37 39 40 42 43 45 46 47 48 48 48 47 46 46 46 46 46 47 47 47 47 46 46
27 27 28 28 28 29 30 30 31 31 31 31 31 31 31 30 30 30 31 32 34 36 38 40 41 43 44 45 47 47 48 48 47 46 47 47 46 46 46 45 47 47 47
27 28 28 28 29 30 31 31 31 31 31 31 30 30 29 29 28 28 28 29 30 32 34 37 39 41 42 44 45 47 47 47 47 46 46 46 46 46 46 45 46 46 47
28 28 29 29 30 30 31 31 31 31 31 30 29 28 28 28 27 27 26 27 27 29 30 33 36 38 40 42 43 45 46 47 47 47 46 46 46 47 47 46 46 47 47
29 29 30 30 30 31 31 31 31 31 30 29 28 28 27 26 25 25 25 25 25 26 28 30 33 35 37 39 42 44 45 46 47 46 47 46 46 47 47 47 46 46 47
29 29 30 31 31 31 31 31 31 30 30 29 28 27 25 24 24 24 23 22 22 23 25 26 29 31 34 37 39 42 44 46 46 47 47 47 48 47 48 48 47 46 47
29 30 31 31 31 32 32 31 31 30 29 28 28 26 25 24 24 22 21 20 20 20 21 24 26 29 30 33 37 39 42 44 46 47 47 48 49 48 48 48 47 47 48
30 30 31 32 32 32 32 31 30 29 29 28 27 26 25 24 23 21 20 18 17 18 19 20 22 25 28 30 32 36 39 42 44 46 47 48 49 49 49 48 48 47 49
31 31 31 32 32 32 32 31 30 29 29 28 27 27 25 24 23 21 19 17 16 15 16 18 20 22 24 28 30 32 36 39 42 42 44 46 49 50 50 49 49 48 48
31 31 32 32 33 33 32 31 30 29 29 28 27 27 26 25 23 21 18 16 14 13 13 14 17 19 21 24 28 31 34 36 39 40 42 43 45 48 50 50 50 49 49
31 31 32 32 33 33 33 31 30 29 29 28 28 27 27 25 23 21 18 16 13 11 11 12 14 16 19 21 24 27 30 33 35 38 40 41 43 46 48 49 49 50 49
31 32 32 32 33 33 33 32 30 30 29 28 28 28 28 26 23 20 18 16 13 11 9 10 11 13 16 19 21 24 27 30 32 35 38 39 41 43 45 47 47 49 50
32 32 32 32 33 33 33 32 30 30 29 29 28 28 28 26 24 21 18 15 13 11 9 8 8 10 13 16 18 21 24 27 29 32 36 38 39 40 42 45 46 47 49
32 33 33 33 33 33 33 32 31 30 29 29 28 27 27 26 24 21 18 16 13 11 9 8 7 8 9 11 14 17 21 25 28 30 32 35 37 39 41 43 45 46 46
33 33 33 33 33 33 33 32 31 30 29 28 27 26 26 25 24 21 18 16 14 12 10 8 7 6 7 9 10 13 17 20 23 27 30 33 35 37 39 41 42 44 44
33 33 33 32 32 33 33 32 30 29 29 28 27 26 25 25 23 21 18 16 14 13 11 9 7 5 5 7 9 11 14 17 20 23 26 29 32 35 37 39 40 42 43
33 34 33 32 32 33 32 31 30 29 28 27 27 26 25 24 22 20 18 16 14 12 11 9 7 6 5 6 8 10 12 15 17 20 23 26 29 31 34 36 39 40 41
33 33 33 32 33 33 32 31 30 29 27 27 26 25 24 23 22 19 18 16 14 12 11 8 7 6 6 6 6 9 11 13 16 18 20 23 25 28 31 33 35 38 40
33 33 32 32 32 32 32 31 30 29 27 26 26 25 24 23 21 19 18 16 14 12 11 9 8 7 6 6 6 8 9 11 13 16 19 21 23 25 28 30 32 34 37
33 32 32 32 32 32 32 31 29 28 27 26 25 25 24 23 21 19 17 15 14 12 10 9 8 8 7 6 6 6 8 9 11 13 16 19 21 24 26 28 30 31 33
33 32 32 32 32 31 31 30 29 28 26 25 24 24 24 22 20 18 17 15 13 12 10 9 9 8 7 6 6 6 7 8 10 11 13 16 19 21 24 26 28 29 31
34 33 33 32 31 30 29 29 28 26 25 25 24 23 22 20 19 18 16 14 13 12 11 10 9 8 7 6 6 6 6 6 7 9 11 13 15 18 20 23 25 28 29
35 34 33 32 30 29 28 28 27 26 25 24 23 22 21 20 18 17 16 15 13 12 11 10 8 8 7 6 5 5 5 5 5 6 7 10 13 15 17 19 22 24 27
35 34 32 31 30 29 28 27 26 25 24 23 22 21 20 19 17 16 15 14 13 11 10 9 8 8 8 6 5 5 5 5 6 6 7 8 10 12 15 17 19 21 23

GEFSGL_500_meanwind_120.txt.gz
Wind_Speed
23 23 23 23 23 24 24 24 24 25 25 26 27 28 29 30 30 31 32 33 34 35 36 37 38 39 40 42 43 44 44 44 43 43 44 43 42 41 42 42 41 42 42
24 23 24 24 24 25 25 25 25 26 26 27 28 28 29 29 30 30 31 32 33 34 35 36 38 39 40 42 43 44 45 45 45 44 45 45 44 44 44 43 44 43 43
24 24 24 25 25 26 26 26 26 27 27 28 28 28 29 29 29 30 30 31 32 33 34 35 36 37 38 40 42 43 44 45 45 45 45 46 46 45 45 45 45 44 43
25 25 25 25 26 27 27 27 27 27 27 28 28 29 29 29 29 30 30 31 31 31 32 33 34 36 37 38 40 42 42 43 45 45 45 45 45 45 46 45 45 45 44
26 26 26 27 27 28 28 28 28 28 28 29 29 30 30 30 30 30 30 30 30 30 30 31 31 33 34 36 37 39 41 42 43 43 44 44 44 45 45 44 45 45 45
26 27 28 28 28 29 29 29 29 29 29 30 30 30 30 30 29 29 29 29 29 29 28 28 29 30 31 33 35 37 38 39 40 42 42 42 43 45 45 44 45 44 44
27 28 28 29 29 30 30 29 30 30 30 30 30 30 30 30 29 29 29 28 27 27 27 27 28 28 29 31 32 34 36 37 38 39 40 41 42 43 44 44 45 45 44
27 28 29 29 29 30 30 30 30 30 30 31 31 30 30 29 29 29 28 27 26 26 26 26 26 26 28 29 30 32 34 35 36 37 39 40 42 43 43 43 44 44 44
28 28 29 29 30 30 31 31 31 31 31 31 31 30 30 29 29 29 28 26 25 24 24 23 23 24 25 26 28 30 31 33 35 36 37 38 40 41 42 44 44 44 44
28 29 29 30 30 31 31 32 31 31 31 31 31 30 29 29 29 29 27 26 24 23 22 21 22 22 23 24 25 27 28 30 32 34 36 37 39 40 41 42 44 44 44
28 29 30 30 31 31 32 32 32 32 32 32 31 30 29 29 29 28 27 26 24 22 20 20 20 20 20 21 22 24 25 27 30 31 34 36 37 38 40 41 42 43 44
28 29 30 31 32 32 32 32 32 32 32 32 31 30 30 30 29 28 27 25 23 21 19 18 18 17 17 18 19 21 23 25 27 29 31 34 35 37 39 40 41 42 43
29 30 31 31 32 32 33 32 32 32 32 31 31 31 31 30 29 28 27 25 23 21 19 18 16 16 15 16 18 19 21 23 25 26 27 30 32 34 37 38 39 40 42
29 30 31 32 32 33 34 33 33 33 33 32 32 31 31 30 29 28 27 25 23 21 19 17 15 14 13 14 15 17 19 20 22 24 25 27 29 31 34 37 37 38 39
30 31 32 33 34 34 34 34 34 34 33 33 32 31 30 29 28 28 27 24 23 21 19 17 15 13 12 11 12 14 16 18 19 21 23 25 27 29 31 33 36 37 38
31 32 33 34 35 35 34 35 35 33 33 32 32 31 30 29 28 27 26 24 22 21 19 16 14 12 11 11 11 11 13 15 17 19 21 24 26 28 30 32 34 35 36
31 32 33 35 36 35 35 35 34 33 33 32 31 31 30 29 28 27 26 24 22 21 19 16 14 13 12 10 10 10 11 12 14 16 19 21 24 27 28 30 33 34 36
32 33 34 35 36 35 35 36 35 33 33 32 31 30 30 29 28 26 25 24 22 21 18 16 14 13 12 10 10 10 10 11 13 15 17 19 21 24 26 27 30 32 34
33 35 36 36 36 36 36 35 35 34 33 32 31 30 29 29 27 26 25 24 22 20 18 16 14 13 12 10 9 9 9 10 11 13 15 17 20 22 25 26 28 30 31
35 35 36 36 36 36 36 36 35 34 33 32 31 30 29 28 27 26 25 23 22 20 18 17 15 14 11 10 10 9 9 10 11 12 14 16 18 20 22 24 26 28 30
36 36 37 37 37 37 36 35 35 34 33 32 31 30 29 28 27 26 24 23 22 20 18 17 16 14 12 11 11 10 9 9 9 11 12 14 16 18 20 22 24 26 28
37 38 38 38 38 38 37 36 35 34 33 32 31 29 28 27 26 25 24 23 21 20 19 17 16 14 13 13 12 11 10 9 9 10 11 13 14 16 18 19 21 24 26
39 39 39 39 39 38 37 36 35 34 33 32 31 30 28 27 26 25 24 23 21 20 19 18 16 15 14 13 13 12 11 10 10 10 11 12 13 15 16 18 20 22 24
40 40 40 40 39 38 38 37 35 34 33 32 31 30 28 27 25 24 23 22 21 20 19 18 16 15 14 13 12 11 11 11 11 11 11 11 12 14 15 17 19 21 23
41 41 41 40 39 38 37 36 35 33 32 31 30 29 28 26 25 24 23 22 21 20 18 17 16 15 14 13 12 11 10 10 10 11 11 11 12 13 13 15 17 19 21
43 42 42 41 40 38 37 36 35 33 31 30 30 29 27 25 25 23 22 21 20 19 17 16 15 14 14 13 12 11 10 10 11 11 11 11 11 12 13 14 15 16 18

GEFSGL_500_meanwind_126.txt.gz
Wind_Speed
16 16 17 17 18 18 18 19 19 19 19 20 20 21 21 22 23 24 24 25 26 27 28 30 31 33 34 36 38 39 40 40 40 41 43 44 45 45 44 44 44 44 45
17 17 17 18 18 19 19 20 20 20 21 21 22 22 22 23 24 25 25 26 26 27 28 30 31 33 34 36 37 39 41 42 42 42 43 44 45 46 46 45 45 45 45
17 18 18 19 19 20 20 21 22 22 23 23 23 23 24 24 25 25 26 27 27 28 29 30 31 32 34 35 37 38 40 42 42 43 43 44 46 46 46 47 46 46 45
17 18 19 19 20 21 22 22 23 23 24 24 24 24 25 25 25 26 26 27 27 29 29 30 31 31 32 34 36 37 39 41 42 42 44 44 45 47 47 47 47 46 46
18 19 19 20 21 22 22 23 24 24 25 25 24 25 25 26 26 26 26 27 27 28 28 29 29 30 31 32 33 35 37 39 40 41 42 43 44 46 47 47 47 47 47
18 19 20 20 21 22 23 24 25 25 26 26 26 26 26 26 26 26 26 27 27 28 28 28 28 28 29 30 32 34 35 37 38 40 40 42 43 44 45 47 47 48 47
18 19 20 21 22 23 24 25 26 26 27 27 27 27 27 27 27 27 27 27 28 28 27 27 27 27 27 29 30 31 33 35 37 38 39 40 42 43 44 45 46 47 47
19 19 20 21 23 24 25 26 27 27 28 28 28 28 28 28 28 28 28 28 27 27 27 26 26 26 26 27 27 28 30 32 35 36 37 38 41 42 42 43 44 45 46
19 20 21 22 23 25 26 27 27 28 29 29 29 29 29 29 29 29 29 28 27 27 26 26 25 25 25 25 26 27 28 30 32 33 35 36 38 40 41 42 42 44 45
20 21 22 23 24 25 26 27 28 29 29 30 30 30 30 30 30 30 29 28 27 27 27 26 24 24 24 25 25 25 26 27 29 31 33 35 36 38 39 40 41 41 43
21 22 23 23 25 26 27 28 29 29 30 30 31 31 31 30 30 30 29 28 27 26 26 25 24 24 23 24 24 24 24 25 27 29 31 33 34 36 37 38 39 40 41
22 23 24 25 25 26 27 28 29 30 30 31 31 31 31 31 30 30 28 28 27 26 25 24 24 23 23 23 22 22 22 23 24 26 28 30 32 34 36 37 38 39 40
23 24 24 25 26 27 28 28 30 31 31 31 31 31 31 31 30 30 28 27 27 26 26 25 24 23 23 22 21 20 20 21 22 24 25 28 30 32 34 35 36 38 39
24 25 26 26 27 28 28 29 30 31 31 31 31 32 32 31 31 30 29 28 27 26 26 25 24 23 22 21 19 18 17 18 19 21 23 26 28 30 32 33 35 37 37
25 26 27 27 28 29 29 30 30 30 31 31 32 32 32 32 31 30 29 28 27 26 26 25 24 22 21 20 18 16 16 16 17 18 20 22 25 27 30 32 33 35 36
26 27 28 28 29 29 30 30 31 31 32 32 32 33 33 32 31 30 29 28 28 27 25 24 23 22 20 19 17 16 15 14 14 16 18 20 22 25 27 30 32 33 34
27 28 29 29 30 30 31 31 32 32 32 32 32 33 33 32 31 30 29 28 27 26 25 24 23 21 20 18 16 15 14 13 13 14 15 17 19 23 25 27 29 30 31
29 29 30 31 31 32 32 33 33 33 33 33 33 33 32 31 31 30 28 27 26 26 25 23 22 21 19 18 16 15 14 14 14 14 14 16 17 20 24 25 27 29 30
31 31 31 32 33 34 34 34 34 34 33 33 33 33 33 31 30 29 28 27 26 25 24 23 22 21 20 18 17 15 14 14 13 13 14 15 17 18 21 23 25 26 28
32 32 33 34 35 35 36 36 35 35 34 34 33 33 33 31 30 29 28 27 26 25 24 23 22 21 20 19 17 15 14 14 13 13 14 15 16 17 19 21 23 25 26
34 34 35 36 36 36 36 36 36 36 35 35 34 33 32 31 30 29 27 26 25 24 23 23 22 21 20 18 17 15 14 14 13 13 13 14 15 16 17 19 21 23 24
36 36 37 37 38 38 38 38 37 37 36 35 34 33 32 30 29 28 27 26 24 23 23 23 22 20 19 18 17 16 14 13 13 13 13 14 15 15 16 17 19 20 22
38 39 39 39 39 39 39 39 39 38 37 36 34 33 32 31 29 28 27 26 25 24 23 22 21 20 19 18 17 16 14 14 13 13 12 13 13 14 15 16 17 19 21
40 41 41 41 40 40 40 39 39 38 37 36 34 33 32 32 30 28 26 25 25 24 23 22 21 20 18 18 17 16 15 14 13 12 11 11 12 13 14 15 16 18 21
42 42 42 42 41 41 40 40 39 38 37 36 34 33 32 30 29 27 26 25 25 24 23 22 21 20 18 18 17 16 15 14 14 13 12 12 12 12 13 14 15 17 19
43 43 43 42 42 41 41 40 39 38 37 36 34 33 31 29 28 27 26 25 24 23 22 22 21 20 19 18 17 17 16 15 15 14 13 13 13 13 13 13 14 15 17

GEFSGL_500_meanwind_132.txt.gz
Wind_Speed
9 10 10 11 12 12 13 14 15 15 16 16 17 18 18 18 18 19 19 20 21 22 24 25 26 27 27 28 30 31 32 33 34 36 38 39 40 40 41 42 43 44 46
9 10 10 11 12 13 14 15 15 16 17 17 18 19 19 19 19 19 20 21 22 23 24 25 26 27 28 29 30 31 33 34 35 36 38 39 41 41 42 43 44 45 46
10 10 10 11 12 13 14 15 16 17 18 19 20 20 20 20 20 20 21 22 23 24 24 25 26 27 28 29 30 32 33 34 35 36 38 39 41 43 44 44 46 46 46
10 10 11 12 13 14 15 16 17 18 19 20 21 21 22 22 21 22 22 23 24 24 25 26 26 27 28 29 30 30 32 33 34 36 37 39 41 43 45 45 46 48 48
10 11 11 12 13 14 16 17 18 19 20 21 22 23 23 23 23 23 24 25 25 25 26 26 27 27 28 28 29 30 30 32 33 35 36 38 41 43 45 46 47 48 49
11 12 12 13 14 16 17 18 19 20 21 22 23 23 24 24 24 25 25 25 26 26 27 27 27 28 28 28 28 29 30 30 32 33 35 37 39 41 44 45 47 48 49
12 13 14 15 16 17 18 19 20 21 22 23 23 24 25 25 26 26 27 27 27 27 27 28 28 28 29 28 28 29 30 31 32 33 33 35 38 40 42 44 45 46 47
14 15 15 16 17 19 20 21 21 22 23 24 24 25 25 26 27 28 27 27 27 28 28 28 28 28 28 28 28 28 29 30 31 32 33 34 36 38 40 42 43 44 46
15 16 17 18 19 20 21 22 23 23 24 24 25 26 27 28 29 29 28 27 28 29 28 28 28 28 28 27 27 28 28 29 30 31 32 33 33 35 37 40 41 43 44
17 18 19 19 20 21 22 23 24 24 25 25 26 27 27 28 29 29 29 29 29 29 29 28 28 27 27 27 27 27 28 28 29 30 31 32 32 33 35 36 38 40 41
18 19 20 21 22 23 24 24 25 25 26 26 27 28 28 29 29 30 30 30 30 30 30 29 28 28 27 27 27 27 27 28 28 28 29 30 30 31 32 34 35 37 38
20 21 22 23 24 25 25 26 26 26 27 27 28 29 29 30 30 30 31 30 30 30 30 30 29 28 28 28 28 27 27 27 27 27 27 27 28 29 30 31 33 34 36
21 22 23 24 25 26 27 27 28 28 28 29 29 30 30 31 31 32 32 32 32 31 31 30 30 30 29 29 29 28 27 26 26 26 26 26 26 27 28 28 30 32 33
23 24 25 25 26 27 28 28 29 29 29 30 31 31 31 31 32 33 33 33 33 32 31 31 30 30 29 28 28 27 26 25 25 24 24 24 24 25 25 26 27 28 29
25 25 26 27 27 28 29 29 30 31 31 32 32 33 32 33 33 34 34 34 34 33 32 31 31 30 30 28 27 27 26 24 23 23 22 22 22 22 23 24 24 26 28
26 27 27 28 29 30 31 31 32 32 33 33 34 34 34 35 35 35 35 35 34 33 32 31 31 30 30 29 28 26 26 24 23 22 21 21 20 21 21 22 24 24 26
27 28 29 30 31 32 32 33 33 34 35 35 36 36 36 36 36 36 36 36 34 33 32 31 31 30 30 29 28 27 25 24 23 22 21 20 20 19 20 21 22 23 24
29 30 31 32 33 34 34 34 34 35 35 36 37 38 38 38 38 37 37 36 35 34 33 32 31 30 29 29 28 27 25 24 23 22 21 20 20 20 19 20 21 22 23
31 32 33 34 34 35 36 36 37 37 38 38 39 39 39 39 39 38 37 36 36 35 34 32 32 30 29 28 27 26 25 23 22 21 21 20 20 20 19 19 20 20 21
33 34 35 36 37 37 38 39 39 39 40 39 39 40 40 40 39 38 38 36 36 35 34 32 32 30 29 27 26 25 24 23 22 21 20 20 19 18 18 18 18 19 20
35 36 37 38 39 40 41 41 41 41 41 41 41 41 41 40 39 38 37 37 36 34 33 32 31 30 29 27 26 25 24 23 22 21 20 19 18 17 17 17 17 18 19
38 39 40 41 41 41 42 42 43 43 43 43 42 42 42 41 40 39 38 37 36 34 33 32 30 29 28 27 26 25 24 23 22 21 20 18 17 17 17 17 17 17 18
40 41 42 43 43 43 43 44 44 44 44 44 43 43 43 42 41 40 38 37 35 34 33 32 30 29 27 26 26 25 24 23 22 21 20 19 18 17 16 16 17 17 18
42 43 43 44 44 44 44 44 45 45 45 44 44 44 43 42 41 40 38 36 35 33 32 31 30 29 28 26 25 25 24 22 21 21 20 19 19 18 16 16 16 17 18
43 44 45 45 45 45 46 46 46 46 46 45 45 44 43 42 41 39 38 37 35 32 32 31 30 29 28 27 26 25 24 22 21 21 20 19 18 17 16 16 16 16 17
44 45 46 46 46 46 47 47 47 47 46 45 45 44 43 41 40 39 38 36 34 33 32 30 29 28 27 26 25 24 24 22 21 20 19 19 18 17 16 16 16 15 15

GEFSGL_500_meanwind_138.txt.gz
Wind_Speed
2 2 2 2 3 4 4 5 6 7 8 9 10 11 11 12 13 13 13 13 14 15 16 16 17 18 19 21 22 24 25 27 28 30 31 32 34 35 36 37 38 40 41
4 3 3 3 4 5 5 6 7 8 9 10 11 12 12 13 14 15 15 15 15 16 16 17 18 19 20 22 23 24 25 26 28 30 32 33 34 35 36 37 38 40 42
5 5 4 5 5 6 7 8 9 10 11 11 12 13 13 14 15 16 16 16 17 18 18 19 19 20 21 22 23 24 25 27 28 30 32 34 35 36 37 38 38 39 41
6 6 6 6 7 7 8 9 10 11 12 13 13 14 14 15 16 16 17 17 18 19 19 20 20 21 22 22 23 24 25 27 28 29 31 33 35 36 37 38 39 40 41
8 8 8 8 8 9 9 10 11 12 13 14 15 15 16 16 17 18 18 19 19 20 20 21 21 22 22 23 24 24 25 26 28 29 30 31 33 35 36 37 39 40 42
10 10 10 10 10 11 11 12 13 14 15 15 16 17 17 17 18 19 20 20 20 21 21 22 22 23 23 24 24 25 25 26 28 29 30 30 31 33 35 36 38 40 42
12 12 12 12 12 12 13 13 14 15 16 17 18 18 19 19 20 20 21 21 22 22 23 23 24 24 24 25 25 25 26 27 28 29 29 30 31 32 34 35 37 40 41
13 13 13 13 14 14 15 15 16 17 18 19 19 20 20 21 21 22 22 22 23 24 24 25 25 25 26 26 26 26 27 27 28 28 29 30 31 32 33 34 36 38 40
15 15 15 15 16 16 17 17 18 19 20 20 21 22 22 22 22 23 23 24 24 25 26 26 26 27 27 27 27 28 28 28 28 29 29 30 31 32 33 34 35 36 37
17 17 17 17 17 18 18 19 20 20 21 22 22 23 23 24 24 24 25 25 26 26 27 27 27 28 28 28 28 28 28 29 29 29 29 30 31 32 32 33 34 35 36
19 19 19 19 19 19 20 21 21 22 22 23 23 24 24 25 26 26 27 27 27 28 28 28 28 29 29 29 29 29 28 28 28 29 29 30 30 31 31 32 33 33 34
20 20 21 21 21 21 21 22 22 23 24 24 25 25 26 27 27 28 28 29 29 29 29 29 30 30 30 30 30 30 29 29 29 29 29 29 29 30 30 31 31 32 32
21 22 22 22 22 23 23 24 24 25 26 26 26 27 28 28 29 29 29 30 30 30 30 31 31 31 31 31 31 30 30 30 29 29 29 29 29 29 29 29 29 30 31
23 23 23 24 24 24 25 26 26 27 27 28 28 29 30 30 31 31 31 31 31 32 32 32 32 32 32 32 31 31 31 31 30 30 30 29 29 29 29 28 29 29 30
24 25 25 26 26 26 27 28 28 29 29 30 30 31 32 32 32 33 33 33 33 34 34 34 34 34 33 33 33 32 32 31 31 31 30 30 29 29 28 27 27 28 28
25 26 26 27 28 28 29 29 30 30 31 31 32 33 34 34 35 35 35 36 36 36 36 36 35 35 35 34 34 34 33 32 32 31 30 29 29 28 28 27 27 26 26
27 27 28 29 29 30 31 31 32 32 33 33 34 35 36 37 37 37 38 38 38 38 37 37 36 36 36 35 34 34 33 32 32 31 30 29 28 28 27 27 26 26 26
28 29 29 30 31 31 32 33 34 34 35 35 37 38 38 39 39 39 40 40 39 39 39 38 37 36 36 35 34 34 32 32 31 30 29 28 28 27 26 26 25 25 25
30 31 31 32 33 33 34 35 35 36 37 38 39 40 40 41 41 41 41 41 41 41 40 39 39 38 37 36 35 34 33 31 31 30 29 28 28 27 26 25 24 24 24
32 32 33 34 35 36 36 37 38 39 40 40 41 42 43 43 43 43 43 42 42 42 41 41 40 38 37 35 35 34 33 32 31 30 29 28 28 27 26 25 24 24 23
33 34 35 36 37 38 39 40 41 41 42 43 43 43 43 44 44 44 44 44 43 43 42 41 40 39 37 36 35 34 33 33 31 30 29 28 27 26 25 24 24 24 23
36 37 38 38 39 40 41 42 43 43 43 44 44 44 44 45 45 45 45 44 44 42 41 40 39 38 37 36 35 34 34 32 31 30 29 28 27 26 25 25 25 24 23
38 39 40 41 42 42 43 43 44 44 45 45 46 46 46 46 46 45 45 44 43 42 41 39 38 36 36 35 34 33 32 31 30 29 28 28 27 26 25 25 24 23 22
40 41 42 42 43 43 44 45 45 46 47 47 48 48 47 47 46 46 45 43 42 40 39 38 36 35 34 34 33 32 31 30 29 28 28 27 26 25 25 24 23 22 22
42 43 44 44 45 45 46 46 47 48 48 48 49 48 48 47 46 45 44 42 41 40 39 37 35 34 33 32 32 30 30 29 28 27 26 26 25 25 24 24 23 22 21
45 45 45 45 46 47 48 48 48 49 49 49 49 48 47 46 45 44 43 41 40 40 38 37 35 34 33 32 31 30 29 28 27 26 24 24 24 24 23 22 22 21 20